| time (UTC) | temp C | wind direction | speed KPH | gust KPH | rain 1hr cm | rain 24hr cm | rain mn cm | humidity % | barometer mb |
| 20260504180031 | 25 | 170 | 6.4 | 19.3 | 0.00 | 0.00 | 0.00 | 52 | 1013.9 |
| 20260504174551 | 25 | 243 | 11.3 | 24.1 | 0.00 | 0.00 | 0.00 | 49 | 1014.0 |
| 20260504173012 | 25 | 250 | 14.5 | 27.4 | 0.00 | 0.00 | 0.00 | 49 | 1014.3 |
| 20260504171545 | 25 | 227 | 8.0 | 24.1 | 0.00 | 0.00 | 0.00 | 48 | 1014.3 |
| 20260504081544 | 8 | 190 | 0.0 | 0.0 | 0.00 | 0.00 | 0.00 | 84 | 1015.6 |
| 20260504050106 | 9 | 190 | 3.2 | 8.0 | 0.00 | 0.00 | 0.00 | 84 | 1016.9 |
| 20260504044522 | 9 | 211 | 0.0 | 0.0 | 0.00 | 0.00 | 0.00 | 83 | 1017.0 |
| 20260504043055 | 10 | 211 | 0.0 | 0.0 | 0.00 | 0.00 | 0.00 | 83 | 1017.2 |
| 20260504041505 | 10 | 211 | 0.0 | 0.0 | 0.00 | 0.00 | 0.00 | 81 | 1017.4 |
| 20260504040025 | 10 | 211 | 0.0 | 0.0 | 0.00 | 0.00 | 0.00 | 80 | 1017.4 |
| 20260504034539 | 10 | 211 | 0.0 | 0.0 | 0.00 | 0.00 | 0.00 | 79 | 1017.4 |
| 20260504033103 | 10 | 211 | 0.0 | 0.0 | 0.00 | 0.00 | 0.00 | 79 | 1017.4 |
| 20260504031531 | 10 | 211 | 0.0 | 0.0 | 0.00 | 0.00 | 0.00 | 78 | 1017.4 |
| 20260504030039 | 10 | 211 | 0.0 | 0.0 | 0.00 | 0.00 | 0.00 | 78 | 1017.4 |
| 20260504024600 | 11 | 211 | 0.0 | 0.0 | 0.00 | 0.00 | 0.00 | 75 | 1017.3 |
| 20260504023034 | 11 | 211 | 0.0 | 0.0 | 0.00 | 0.00 | 0.00 | 74 | 1017.6 |
| 20260504021555 | 12 | 211 | 0.0 | 0.0 | 0.00 | 0.00 | 0.00 | 72 | 1017.6 |
| 20260504020132 | 12 | 211 | 0.0 | 0.0 | 0.00 | 0.00 | 0.00 | 69 | 1017.5 |
| 20260504014536 | 13 | 211 | 0.0 | 0.0 | 0.00 | 0.00 | 0.00 | 66 | 1017.1 |
| 20260504013055 | 14 | 211 | 0.0 | 0.0 | 0.00 | 0.00 | 0.00 | 63 | 1017.1 |
| 20260504011502 | 15 | 211 | 0.0 | 0.0 | 0.00 | 0.00 | 0.00 | 61 | 1017.0 |
| 20260504010020 | 16 | 211 | 0.0 | 4.8 | 0.00 | 0.00 | 0.00 | 56 | 1016.8 |
| 20260504004608 | 17 | 211 | 0.0 | 0.0 | 0.00 | 0.00 | 0.00 | 54 | 1016.6 |
| 20260504003102 | 17 | 211 | 0.0 | 3.2 | 0.00 | 0.00 | 0.00 | 51 | 1016.5 |
| 20260504001529 | 18 | 212 | 1.6 | 4.8 | 0.00 | 0.00 | 0.00 | 48 | 1016.7 |
| 20260504000039 | 18 | 213 | 1.6 | 6.4 | 0.00 | 0.00 | 0.00 | 46 | 1016.8 |
| 20260503234604 | 18 | 250 | 4.8 | 8.0 | 0.00 | 0.00 | 0.00 | 44 | 1016.8 |
| 20260503233028 | 19 | 223 | 4.8 | 9.7 | 0.00 | 0.00 | 0.00 | 44 | 1017.1 |
| 20260503231551 | 19 | 302 | 3.2 | 9.7 | 0.00 | 0.00 | 0.00 | 42 | 1017.3 |
| 20260503230007 | 20 | 252 | 3.2 | 9.7 | 0.00 | 0.00 | 0.00 | 43 | 1017.4 |
| 20260503224536 | 20 | 227 | 4.8 | 12.9 | 0.00 | 0.00 | 0.00 | 40 | 1017.6 |
| 20260503223059 | 20 | 308 | 6.4 | 12.9 | 0.00 | 0.00 | 0.00 | 40 | 1017.7 |
| 20260503221531 | 21 | 295 | 3.2 | 14.5 | 0.00 | 0.00 | 0.00 | 38 | 1017.6 |
| 20260503220046 | 21 | 196 | 4.8 | 11.3 | 0.00 | 0.00 | 0.00 | 38 | 1017.9 |
| 20260503214501 | 21 | 248 | 8.0 | 22.5 | 0.00 | 0.00 | 0.00 | 38 | 1018.0 |
| 20260503213027 | 21 | 213 | 4.8 | 12.9 | 0.00 | 0.00 | 0.00 | 40 | 1018.2 |
| 20260503211550 | 21 | 213 | 11.3 | 24.1 | 0.00 | 0.00 | 0.00 | 39 | 1018.3 |
| 20260503210101 | 21 | 285 | 4.8 | 20.9 | 0.00 | 0.00 | 0.00 | 38 | 1018.6 |
| 20260503204531 | 21 | 205 | 4.8 | 16.1 | 0.00 | 0.00 | 0.00 | 39 | 1018.7 |
| 20260503203113 | 21 | 251 | 11.3 | 24.1 | 0.00 | 0.00 | 0.00 | 40 | 1018.9 |
| 20260503201532 | 21 | 242 | 8.0 | 19.3 | 0.00 | 0.00 | 0.00 | 39 | 1019.2 |
| 20260503200033 | 21 | 230 | 8.0 | 17.7 | 0.00 | 0.00 | 0.00 | 40 | 1019.5 |
| 20260503194558 | 21 | 242 | 12.9 | 24.1 | 0.00 | 0.00 | 0.00 | 41 | 1019.9 |
| 20260503193025 | 20 | 144 | 4.8 | 14.5 | 0.00 | 0.00 | 0.00 | 40 | 1020.3 |
| 20260503191549 | 20 | 207 | 4.8 | 16.1 | 0.00 | 0.00 | 0.00 | 42 | 1020.5 |
| 20260503190105 | 20 | 229 | 6.4 | 16.1 | 0.00 | 0.00 | 0.00 | 43 | 1020.8 |
| 20260503184522 | 20 | 231 | 1.6 | 11.3 | 0.00 | 0.00 | 0.00 | 47 | 1020.9 |
| 20260503183044 | 20 | 265 | 6.4 | 17.7 | 0.00 | 0.00 | 0.00 | 44 | 1021.2 |
| 20260503181507 | 19 | 169 | 6.4 | 20.9 | 0.00 | 0.00 | 0.00 | 44 | 1021.2 |